Regional Weather Roundup
Issued by NWS

Home | Current Version | Previous Version | Graphics & Text | Print | Product List | Glossary On
Versions: 1 2 3 4 5 6 7 8 9 10 11 12 13 14 15 16 17 18 19 20 21 22 23 24 25 26 27 28 29 30 31 32 33 34 35 36 37 38 39 40 41 42 43 44 45 46 47 48 49 50
864
ASUS43 KDTX 280210
RWRMI
MICHIGAN HOURLY REGIONAL WEATHER ROUNDUP
NATIONAL WEATHER SERVICE DETROIT/PONTIAC MI
ISSUED BY NATIONAL WEATHER SERVICE GRAND RAPIDS MI
900 PM EST MON FEB 27 2017

NOTE: "FAIR" INDICATES FEW OR NO CLOUDS BELOW 12,000 FEET WITH NO
SIGNIFICANT WEATHER AND/OR OBSTRUCTION TO VISIBILITY.

MIZ047>049-052>055-059>063-066>070-074>076-081>083-280300-
SOUTHEAST LOWER MICHIGAN

CITY           SKY/WX    TMP DP  RH WIND       PRES   REMARKS
ADRIAN         CLOUDY    39  34  82 S8        30.19S WCI  33
ALMA           CLEAR     35  29  80 CALM      30.14S
ANN ARBOR      PTCLDY    42  34  73 SE7       30.18S
BAD AXE        MOCLDY    33  27  79 SE3       30.18F
DETROIT CITY   CLOUDY    44  36  73 S10       30.20S
DETROIT        MOCLDY    44  36  73 S9        30.21R
FLINT          CLEAR     41  31  67 S8        30.17S
GROSSE ILE     CLEAR     38  36  91 SW5       30.20R WCI  35
HILLSDALE      CLOUDY    41  34  75 S7        30.15S
HOWELL         PTCLDY    40  32  73 S6        30.16F

CITY           SKY/WX    TMP DP  RH WIND       PRES   REMARKS
JACKSON        CLOUDY    40  32  73 S7        30.15F
LANSING        CLEAR     41  30  65 S8        30.15F
MASON          MOCLDY    41  34  78 S5        30.15F
MONROE         CLEAR     41  38  88 SE3       30.19S
MT. CLEMENS    MOCLDY    38  35  91 S9        30.18S WCI  31
PONTIAC        MOCLDY    43  33  68 SE5       30.17R
PORT HOPE        N/A     35  29  78 S8        30.17F WCI  29
PORT HURON     CLEAR     36  32  87 SE5       30.21S WCI  32
TRI CITIES     PTCLDY    36  30  79 E5        30.15S WCI  32
YPSILANTI      MOCLDY    44  36  73 S9        30.20R
$$
MIZ043>046-050>051-056>058-064>065-071>073-077>080-280300-
SOUTHWEST LOWER MICHIGAN

CITY           SKY/WX    TMP DP  RH WIND       PRES   REMARKS
BATTLE CREEK   PTCLDY    42  33  70 S8        30.13F
BENTON HARBOR  CLOUDY    45  32  60 SE7       30.11S
BIG RAPIDS     PTCLDY    32  27  82 CALM      30.11S
COLDWATER      CLEAR     41  33  73 SE3       30.14F
HOLLAND        CLOUDY    40  31  70 SE7       30.11S
GRAND RAPIDS   MOCLDY    40  31  70 S8        30.11S WCI  34
KALAMAZOO      CLOUDY    44  32  62 S7        30.13F
MARSHALL       PTCLDY    42  33  71 SE6       30.14S
MOUNT PLEASANT PTCLDY    32  28  86 CALM      30.13S
MUSKEGON       CLOUDY    37  31  78 SE6       30.11R WCI  32
STURGIS        CLOUDY    42  34  74 SE7       30.14S
$$
MIZ016>042-280300-
NORTHERN LOWER MICHIGAN

CITY           SKY/WX    TMP DP  RH WIND       PRES   REMARKS
ALPENA         CLOUDY    33  27  78 S8        30.16S WCI  26
BEAVER ISLAND  PTCLDY    26  24  89 CALM      30.10R
BELLAIRE       MOCLDY    31  27  84 CALM      30.11S
CADILLAC       CLOUDY    31  25  78 CALM      30.09S
CHARLEVOIX     PTCLDY    30  25  83 E3        30.13S
GAYLORD        CLOUDY    36  23  59 S6        30.09S WCI  31
HOUGHTON LAKE  CLOUDY    33  22  63 SE7       30.12S WCI  27
MANISTEE       PTCLDY    30  26  85 NE3       30.10R
OSCODA         CLEAR     31  28  90 S6        30.16S WCI  25
PELLSTON       CLOUDY    24  19  81 CALM      30.12S
TRAVERSE CITY  PTCLDY    38  25  59 SE5       30.10R WCI  34
LUDINGTON      MOCLDY    35  31  85 SE3       30.09F
$$
MIZ007>008-015-280300-
EASTERN UPPER MICHIGAN

CITY           SKY/WX    TMP DP  RH WIND       PRES   REMARKS
KINROSS        CLOUDY    26  22  84 E9        30.12S WCI  17
MACKINAC ISLAN CLOUDY    32  26  78 SE8       30.10F WCI  25
NEWBERRY       CLOUDY    26  21  80 SE7       30.08R WCI  18
S. S. MARIE    PTCLDY    27  18  69 E5        30.13R WCI  22
$$
MIZ004>006-011>014-085-280300-
CENTRAL UPPER MICHIGAN

CITY           SKY/WX    TMP DP  RH WIND       PRES   REMARKS
MANISTIQUE     CLOUDY    32  32  99 S5        30.08R WCI  28
ESCANABA       CLOUDY    33  29  85 S5        30.07R WCI  29
MENOMINEE      CLOUDY    34  29  82 SW5       30.07R WCI  30
SAWYER-GWINN   CLEAR     30  23  74 S10       30.01S WCI  21
$$
MIZ001>003-009>011-084-280300-
WESTERN UPPER MICHIGAN

CITY           SKY/WX    TMP DP  RH WIND       PRES   REMARKS
IRON MOUNTAIN  CLEAR     32  20  61 S6        30.01R WCI  26
HOUGHTON       CLEAR     22  17  81 E5        29.94F WCI  16
COPPER HARBOR    N/A     25  21  85 W5        29.97S WCI  19
IRONWOOD       MOCLDY    35  17  47 S7        29.93S WCI  29
$$

ABBREVIATIONS USED IN REMARKS
   TC - TEMPERATURE IN CELSIUS
  WCI - WIND CHILL INDEX
   HX - HEAT INDEX
  VSB - VISIBILITY





USA.gov is the U.S. government's official web portal to all federal, state and local government web resources and services.